Time,TemperatureF,DewpointF,PressureIn,WindDirection,WindDirectionDegrees,WindSpeedMPH,WindSpeedGustMPH,Humidity,HourlyPrecipIn,Conditions,Clouds,dailyrainin,SoftwareType,DateUTC
2013-02-08 00:02:00,38.0,28.0,-100.00,SSE,160,2.0,4.0,65,0.00,,,-99.99,,2013-02-08 05:02:00,
2013-02-08 00:12:00,38.0,27.0,-100.00,South,170,2.0,4.0,65,0.00,,,-99.99,,2013-02-08 05:12:00,
2013-02-08 00:22:00,38.0,28.0,-100.00,SSE,165,2.0,6.0,65,0.00,,,-99.99,,2013-02-08 05:22:00,
2013-02-08 00:32:00,39.0,29.0,-100.00,SSW,195,2.0,4.0,66,0.00,,,-99.99,,2013-02-08 05:32:00,
2013-02-08 00:42:00,40.0,30.0,-100.00,SSW,200,3.0,6.0,66,0.00,,,-99.99,,2013-02-08 05:42:00,
2013-02-08 00:52:00,41.0,30.0,-100.00,SSW,195,2.0,5.0,66,0.00,,,-99.99,,2013-02-08 05:52:00,
2013-02-08 01:02:00,40.0,30.0,-100.00,SSW,200,2.0,4.0,66,0.00,,,-99.99,,2013-02-08 06:02:00,
2013-02-08 01:11:00,40.0,30.0,-100.00,South,185,2.0,3.0,66,0.00,,,-99.99,,2013-02-08 06:11:00,
2013-02-08 01:21:00,40.0,30.0,-100.00,South,185,3.0,4.0,66,0.00,,,-99.99,,2013-02-08 06:21:00,
2013-02-08 01:32:00,41.0,31.0,-100.00,South,185,3.0,4.0,67,0.00,,,-99.99,,2013-02-08 06:32:00,
2013-02-08 01:42:00,41.0,31.0,-100.00,South,175,4.0,5.0,67,0.00,,,-99.99,,2013-02-08 06:42:00,
2013-02-08 01:51:00,41.0,31.0,-100.00,SSW,205,3.0,6.0,67,0.00,,,-99.99,,2013-02-08 06:51:00,
2013-02-08 02:01:00,41.0,31.0,-100.00,SSW,205,3.0,6.0,67,0.00,,,-99.99,,2013-02-08 07:01:00,
2013-02-08 02:11:00,42.0,32.0,-100.00,SSW,195,3.0,6.0,67,0.00,,,-99.99,,2013-02-08 07:11:00,
2013-02-08 02:21:00,43.0,33.0,-100.00,SSW,195,5.0,7.0,67,0.00,,,-99.99,,2013-02-08 07:21:00,
2013-02-08 02:32:00,43.0,33.0,-100.00,South,175,5.0,9.0,67,0.00,,,-99.99,,2013-02-08 07:32:00,
2013-02-08 02:42:00,43.0,33.0,-100.00,SSW,210,6.0,9.0,66,0.00,,,-99.99,,2013-02-08 07:42:00,
2013-02-08 02:51:00,43.0,33.0,-100.00,SSW,210,4.0,9.0,66,0.00,,,-99.99,,2013-02-08 07:51:00,
2013-02-08 03:01:00,44.0,33.0,-100.00,SSW,200,6.0,9.0,65,0.00,,,-99.99,,2013-02-08 08:01:00,
2013-02-08 03:11:00,43.0,33.0,-100.00,SSW,210,4.0,8.0,65,0.00,,,-99.99,,2013-02-08 08:11:00,
2013-02-08 03:21:00,43.0,33.0,-100.00,SW,220,4.0,9.0,65,0.00,,,-99.99,,2013-02-08 08:21:00,
2013-02-08 03:32:00,43.0,33.0,-100.00,SW,220,3.0,7.0,65,0.00,,,-99.99,,2013-02-08 08:32:00,
2013-02-08 03:42:00,43.0,32.0,-100.00,SSW,205,1.0,4.0,65,0.00,,,-99.99,,2013-02-08 08:42:00,
2013-02-08 03:52:00,43.0,32.0,-100.00,SSW,195,4.0,6.0,65,0.00,,,-99.99,,2013-02-08 08:52:00,
2013-02-08 04:03:00,43.0,33.0,-100.00,SSW,205,3.0,5.0,65,0.00,,,-99.99,,2013-02-08 09:03:00,
2013-02-08 04:11:00,43.0,33.0,-100.00,SSW,210,4.0,6.0,65,0.00,,,-99.99,,2013-02-08 09:11:00,
2013-02-08 04:21:00,43.0,33.0,-100.00,SW,215,4.0,11.0,65,0.00,,,-99.99,,2013-02-08 09:21:00,
2013-02-08 04:32:00,43.0,33.0,-100.00,SW,230,3.0,7.0,66,0.00,,,-99.99,,2013-02-08 09:32:00,
2013-02-08 04:42:00,43.0,33.0,-100.00,SW,235,3.0,7.0,66,0.55,,,-99.99,,2013-02-08 09:42:00,
2013-02-08 04:52:00,43.0,33.0,-100.00,SW,230,2.0,4.0,67,1.69,,,-99.99,,2013-02-08 09:52:00,
2013-02-08 05:01:00,43.0,33.0,-100.00,WSW,245,3.0,6.0,67,0.00,,,-99.99,,2013-02-08 10:01:00,
2013-02-08 05:11:00,43.0,34.0,-100.00,SW,230,3.0,6.0,69,0.00,,,-99.99,,2013-02-08 10:11:00,
2013-02-08 05:22:00,42.0,34.0,-100.00,WSW,245,2.0,6.0,71,1.10,,,-99.99,,2013-02-08 10:22:00,
2013-02-08 05:32:00,42.0,34.0,-100.00,West,275,2.0,6.0,73,2.24,,,-99.99,,2013-02-08 10:32:00,
2013-02-08 05:42:00,42.0,35.0,-100.00,NW,305,2.0,4.0,74,3.39,,,-99.99,,2013-02-08 10:42:00,
2013-02-08 05:51:00,42.0,35.0,-100.00,NW,305,4.0,6.0,76,2.24,,,-99.99,,2013-02-08 10:51:00,
2013-02-08 06:01:00,42.0,36.0,-100.00,NW,310,7.0,16.0,78,2.24,,,-99.99,,2013-02-08 11:01:00,
2013-02-08 06:11:00,42.0,36.0,-100.00,WNW,300,7.0,14.0,80,3.94,,,-99.99,,2013-02-08 11:11:00,
2013-02-08 06:21:00,41.0,36.0,-100.00,NW,305,6.0,10.0,80,1.69,,,-99.99,,2013-02-08 11:21:00,
2013-02-08 06:32:00,41.0,36.0,-100.00,NW,315,4.0,9.0,81,1.10,,,-99.99,,2013-02-08 11:32:00,
2013-02-08 06:42:00,40.0,35.0,-100.00,NW,310,10.0,17.0,81,2.24,,,-99.99,,2013-02-08 11:42:00,
2013-02-08 06:52:00,40.0,35.0,-100.00,NW,325,8.0,17.0,81,1.10,,,-99.99,,2013-02-08 11:52:00,
2013-02-08 07:02:00,40.0,34.0,-100.00,NW,320,6.0,13.0,81,0.00,,,-99.99,,2013-02-08 12:02:00,
2013-02-08 07:11:00,39.0,34.0,-100.00,NW,320,7.0,14.0,82,0.00,,,-99.99,,2013-02-08 12:11:00,
2013-02-08 07:22:00,39.0,34.0,-100.00,NW,315,6.0,13.0,82,0.00,,,-99.99,,2013-02-08 12:22:00,
2013-02-08 07:33:00,39.0,34.0,-100.00,NNW,330,6.0,16.0,82,0.00,,,-99.99,,2013-02-08 12:33:00,
2013-02-08 07:42:00,38.0,33.0,-100.00,NW,320,13.0,21.0,82,0.00,,,-99.99,,2013-02-08 12:42:00,
2013-02-08 07:52:00,37.0,32.0,-100.00,NW,325,10.0,22.0,81,0.00,,,-99.99,,2013-02-08 12:52:00,
2013-02-08 08:02:00,37.0,32.0,-100.00,NNW,335,6.0,17.0,81,0.00,,,-99.99,,2013-02-08 13:02:00,
2013-02-08 08:12:00,37.0,32.0,-100.00,NNW,330,11.0,19.0,81,0.00,,,-99.99,,2013-02-08 13:12:00,
2013-02-08 08:22:00,37.0,31.0,-100.00,NNW,330,8.0,17.0,81,0.00,,,-99.99,,2013-02-08 13:22:00,
2013-02-08 08:32:00,36.0,31.0,-100.00,NNW,330,9.0,16.0,81,0.00,,,-99.99,,2013-02-08 13:32:00,
2013-02-08 08:42:00,36.0,31.0,-100.00,NW,325,5.0,16.0,81,0.00,,,-99.99,,2013-02-08 13:42:00,
2013-02-08 08:51:00,36.0,31.0,-100.00,NW,320,7.0,13.0,81,0.00,,,-99.99,,2013-02-08 13:51:00,
2013-02-08 09:02:00,36.0,31.0,-100.00,NW,310,7.0,19.0,81,0.00,,,-99.99,,2013-02-08 14:02:00,
2013-02-08 09:11:00,36.0,31.0,-100.00,NW,315,9.0,16.0,81,0.00,,,-99.99,,2013-02-08 14:11:00,
2013-02-08 09:22:00,36.0,31.0,-100.00,NW,325,9.0,16.0,81,0.00,,,-99.99,,2013-02-08 14:22:00,
2013-02-08 09:32:00,36.0,31.0,-100.00,NNW,340,9.0,17.0,81,0.00,,,-99.99,,2013-02-08 14:32:00,
2013-02-08 09:42:00,36.0,31.0,-100.00,NNW,340,7.0,17.0,81,0.00,,,-99.99,,2013-02-08 14:42:00,
2013-02-08 09:52:00,36.0,31.0,-100.00,NNW,345,9.0,15.0,81,0.00,,,-99.99,,2013-02-08 14:52:00,
2013-02-08 10:02:00,36.0,31.0,-100.00,NNW,340,6.0,13.0,81,0.00,,,-99.99,,2013-02-08 15:02:00,
2013-02-08 10:11:00,36.0,31.0,-100.00,North,355,6.0,19.0,81,0.00,,,-99.99,,2013-02-08 15:11:00,
2013-02-08 10:22:00,36.0,31.0,-100.00,NW,310,7.0,15.0,81,0.00,,,-99.99,,2013-02-08 15:22:00,
2013-02-08 10:32:00,35.0,30.0,-100.00,NNW,340,9.0,20.0,81,0.00,,,-99.99,,2013-02-08 15:32:00,
2013-02-08 10:42:00,35.0,30.0,-100.00,NNW,345,7.0,16.0,80,0.00,,,-99.99,,2013-02-08 15:42:00,
2013-02-08 10:52:00,35.0,29.0,-100.00,North,350,12.0,19.0,79,0.00,,,-99.99,,2013-02-08 15:52:00,
2013-02-08 11:02:00,35.0,29.0,-100.00,NNW,330,6.0,18.0,78,0.00,,,-99.99,,2013-02-08 16:02:00,
2013-02-08 11:11:00,35.0,28.0,-100.00,NNW,340,7.0,17.0,76,0.00,,,-99.99,,2013-02-08 16:11:00,
2013-02-08 11:22:00,35.0,28.0,-100.00,NW,325,6.0,16.0,75,0.00,,,-99.99,,2013-02-08 16:22:00,
2013-02-08 11:32:00,35.0,27.0,-100.00,North,350,7.0,14.0,73,0.00,,,-99.99,,2013-02-08 16:32:00,
2013-02-08 11:42:00,35.0,27.0,-100.00,NW,325,6.0,17.0,72,0.00,,,-99.99,,2013-02-08 16:42:00,
2013-02-08 11:52:00,35.0,27.0,-100.00,NNW,340,6.0,17.0,71,0.00,,,-99.99,,2013-02-08 16:52:00,
2013-02-08 12:04:00,34.0,25.0,-100.00,North,0,11.0,19.0,68,0.00,,,-99.99,,2013-02-08 17:04:00,
2013-02-08 12:12:00,35.0,25.0,-100.00,North,5,10.0,16.0,66,0.00,,,-99.99,,2013-02-08 17:12:00,
2013-02-08 12:23:00,35.0,24.0,-100.00,North,350,7.0,16.0,65,0.00,,,-99.99,,2013-02-08 17:23:00,
2013-02-08 12:33:00,35.0,24.0,-100.00,North,0,10.0,19.0,65,0.00,,,-99.99,,2013-02-08 17:33:00,
2013-02-08 12:42:00,34.0,24.0,-100.00,NNW,335,11.0,17.0,65,0.00,,,-99.99,,2013-02-08 17:42:00,
2013-02-08 12:52:00,34.0,24.0,-100.00,NNW,335,9.0,16.0,65,0.00,,,-99.99,,2013-02-08 17:52:00,
2013-02-08 13:02:00,34.0,23.0,-100.00,North,355,8.0,25.0,64,0.00,,,-99.99,,2013-02-08 18:02:00,
2013-02-08 13:12:00,34.0,24.0,-100.00,NNW,345,9.0,22.0,64,0.00,,,-99.99,,2013-02-08 18:12:00,
2013-02-08 13:24:00,34.0,24.0,-100.00,North,0,8.0,16.0,64,0.00,,,-99.99,,2013-02-08 18:24:00,
2013-02-08 13:35:00,34.0,23.0,-100.00,North,0,6.0,18.0,64,0.00,,,-99.99,,2013-02-08 18:35:00,
2013-02-08 13:43:00,34.0,24.0,-100.00,NNW,345,6.0,17.0,65,0.00,,,-99.99,,2013-02-08 18:43:00,
2013-02-08 13:52:00,34.0,24.0,-100.00,NNW,340,7.0,16.0,65,0.00,,,-99.99,,2013-02-08 18:52:00,
2013-02-08 14:02:00,34.0,24.0,-100.00,NW,325,8.0,16.0,65,0.00,,,-99.99,,2013-02-08 19:02:00,
2013-02-08 14:11:00,34.0,24.0,-100.00,North,355,5.0,14.0,65,0.00,,,-99.99,,2013-02-08 19:11:00,
2013-02-08 14:22:00,34.0,24.0,-100.00,North,0,7.0,14.0,65,0.00,,,-99.99,,2013-02-08 19:22:00,
2013-02-08 14:32:00,34.0,23.0,-100.00,North,0,12.0,18.0,65,0.00,,,-99.99,,2013-02-08 19:32:00,
2013-02-08 14:42:00,34.0,23.0,-100.00,North,0,11.0,19.0,65,0.00,,,-99.99,,2013-02-08 19:42:00,
2013-02-08 14:52:00,34.0,23.0,-100.00,North,0,9.0,24.0,64,0.00,,,-99.99,,2013-02-08 19:52:00,
2013-02-08 15:02:00,34.0,23.0,-100.00,North,0,11.0,19.0,63,0.00,,,-99.99,,2013-02-08 20:02:00,
2013-02-08 15:11:00,33.0,23.0,-100.00,North,0,9.0,17.0,64,0.00,,,-99.99,,2013-02-08 20:11:00,
2013-02-08 15:22:00,33.0,23.0,-100.00,North,0,9.0,18.0,65,0.00,,,-99.99,,2013-02-08 20:22:00,
2013-02-08 15:32:00,33.0,23.0,-100.00,North,355,7.0,17.0,64,0.00,,,-99.99,,2013-02-08 20:32:00,
2013-02-08 15:42:00,33.0,22.0,-100.00,North,0,9.0,19.0,63,0.00,,,-99.99,,2013-02-08 20:42:00,
2013-02-08 15:52:00,33.0,22.0,-100.00,North,0,11.0,19.0,62,0.00,,,-99.99,,2013-02-08 20:52:00,
2013-02-08 16:02:00,33.0,22.0,-100.00,NNW,340,7.0,17.0,62,0.00,,,-99.99,,2013-02-08 21:02:00,
2013-02-08 16:11:00,33.0,22.0,-100.00,NNW,345,11.0,19.0,62,0.00,,,-99.99,,2013-02-08 21:11:00,
2013-02-08 16:22:00,33.0,21.0,-100.00,North,0,8.0,19.0,61,0.00,,,-99.99,,2013-02-08 21:22:00,
2013-02-08 16:32:00,33.0,21.0,-100.00,North,0,9.0,18.0,61,0.00,,,-99.99,,2013-02-08 21:32:00,
2013-02-08 16:42:00,33.0,21.0,-100.00,North,0,6.0,14.0,61,0.00,,,-99.99,,2013-02-08 21:42:00,
2013-02-08 16:52:00,33.0,21.0,-100.00,North,0,9.0,20.0,61,0.00,,,-99.99,,2013-02-08 21:52:00,
2013-02-08 17:02:00,33.0,21.0,-100.00,North,0,9.0,22.0,61,0.00,,,-99.99,,2013-02-08 22:02:00,
2013-02-08 17:11:00,33.0,21.0,-100.00,North,5,9.0,21.0,60,0.00,,,-99.99,,2013-02-08 22:11:00,
2013-02-08 17:22:00,33.0,20.0,-100.00,North,0,8.0,21.0,59,0.00,,,-99.99,,2013-02-08 22:22:00,
2013-02-08 17:32:00,33.0,20.0,-100.00,North,10,7.0,19.0,59,0.00,,,-99.99,,2013-02-08 22:32:00,
2013-02-08 17:42:00,33.0,20.0,-100.00,NNE,20,9.0,17.0,60,0.00,,,-99.99,,2013-02-08 22:42:00,
2013-02-08 17:52:00,33.0,21.0,-100.00,North,5,7.0,17.0,61,0.00,,,-99.99,,2013-02-08 22:52:00,
2013-02-08 18:02:00,32.0,21.0,-100.00,North,5,3.0,13.0,62,0.00,,,-99.99,,2013-02-08 23:02:00,
2013-02-08 18:11:00,32.0,20.0,-100.00,NNE,30,12.0,19.0,62,0.00,,,-99.99,,2013-02-08 23:11:00,
2013-02-08 18:21:00,32.0,20.0,-100.00,NNW,345,8.0,12.0,62,0.00,,,-99.99,,2013-02-08 23:21:00,
2013-02-08 18:32:00,32.0,20.0,-100.00,North,355,9.0,19.0,62,0.00,,,-99.99,,2013-02-08 23:32:00,
2013-02-08 18:42:00,31.0,20.0,-100.00,North,0,11.0,19.0,61,0.00,,,-99.99,,2013-02-08 23:42:00,
2013-02-08 18:52:00,31.0,20.0,-100.00,North,5,9.0,16.0,61,0.00,,,-99.99,,2013-02-08 23:52:00,
2013-02-08 19:02:00,31.0,19.0,-100.00,North,0,9.0,15.0,61,0.00,,,-99.99,,2013-02-09 00:02:00,
2013-02-08 19:11:00,31.0,19.0,-100.00,North,10,10.0,18.0,61,0.00,,,-99.99,,2013-02-09 00:11:00,
2013-02-08 19:22:00,30.0,18.0,-100.00,North,5,11.0,19.0,60,0.00,,,-99.99,,2013-02-09 00:22:00,
2013-02-08 19:32:00,30.0,18.0,-100.00,NNE,25,9.0,19.0,59,0.00,,,-99.99,,2013-02-09 00:32:00,
2013-02-08 19:42:00,30.0,18.0,-100.00,NNE,30,9.0,20.0,59,0.00,,,-99.99,,2013-02-09 00:42:00,
2013-02-08 19:52:00,30.0,18.0,-100.00,NNE,20,11.0,15.0,60,0.00,,,-99.99,,2013-02-09 00:52:00,
2013-02-08 20:02:00,30.0,18.0,-100.00,NE,45,8.0,17.0,60,0.00,,,-99.99,,2013-02-09 01:02:00,
2013-02-08 20:11:00,30.0,18.0,-100.00,NNE,20,4.0,10.0,60,0.00,,,-99.99,,2013-02-09 01:11:00,
2013-02-08 20:22:00,30.0,19.0,-100.00,North,0,9.0,16.0,61,0.00,,,-99.99,,2013-02-09 01:22:00,
2013-02-08 20:32:00,30.0,18.0,-100.00,North,10,8.0,19.0,61,0.00,,,-99.99,,2013-02-09 01:32:00,
2013-02-08 20:42:00,29.0,18.0,-100.00,NNE,15,11.0,19.0,61,0.00,,,-99.99,,2013-02-09 01:42:00,
2013-02-08 20:52:00,29.0,17.0,-100.00,NE,35,10.0,17.0,60,0.00,,,-99.99,,2013-02-09 01:52:00,
2013-02-08 21:01:00,29.0,17.0,-100.00,NE,40,7.0,13.0,60,0.00,,,-99.99,,2013-02-09 02:01:00,
2013-02-08 21:11:00,29.0,17.0,-100.00,North,5,7.0,16.0,60,0.00,,,-99.99,,2013-02-09 02:11:00,
2013-02-08 21:21:00,29.0,17.0,-100.00,North,10,4.0,12.0,60,0.00,,,-99.99,,2013-02-09 02:21:00,
2013-02-08 21:32:00,29.0,17.0,-100.00,North,10,4.0,10.0,60,0.00,,,-99.99,,2013-02-09 02:32:00,
2013-02-08 21:42:00,29.0,17.0,-100.00,North,0,4.0,12.0,60,0.00,,,-99.99,,2013-02-09 02:42:00,
2013-02-08 21:52:00,29.0,17.0,-100.00,North,0,7.0,12.0,60,0.00,,,-99.99,,2013-02-09 02:52:00,
2013-02-08 22:02:00,29.0,17.0,-100.00,North,0,11.0,18.0,59,0.00,,,-99.99,,2013-02-09 03:02:00,
2013-02-08 22:11:00,29.0,16.0,-100.00,NNE,15,11.0,16.0,58,0.00,,,-99.99,,2013-02-09 03:11:00,
2013-02-08 22:22:00,29.0,16.0,-100.00,North,0,7.0,16.0,58,0.00,,,-99.99,,2013-02-09 03:22:00,
2013-02-08 22:32:00,29.0,16.0,-100.00,NNE,15,7.0,16.0,58,0.00,,,-99.99,,2013-02-09 03:32:00,
2013-02-08 22:42:00,29.0,16.0,-100.00,NNE,15,6.0,12.0,58,0.00,,,-99.99,,2013-02-09 03:42:00,
2013-02-08 22:52:00,29.0,15.0,-100.00,NNE,30,6.0,14.0,57,0.00,,,-99.99,,2013-02-09 03:52:00,
2013-02-08 23:03:00,29.0,15.0,-100.00,NE,35,8.0,13.0,56,0.00,,,-99.99,,2013-02-09 04:03:00,
2013-02-08 23:12:00,29.0,15.0,-100.00,North,0,7.0,12.0,55,0.00,,,-99.99,,2013-02-09 04:12:00,
2013-02-08 23:23:00,29.0,15.0,-100.00,North,0,6.0,14.0,55,0.00,,,-99.99,,2013-02-09 04:23:00,
2013-02-08 23:32:00,29.0,15.0,-100.00,NNE,25,5.0,11.0,55,0.00,,,-99.99,,2013-02-09 04:32:00,
2013-02-08 23:42:00,29.0,15.0,-100.00,North,10,4.0,11.0,55,0.00,,,-99.99,,2013-02-09 04:42:00,
2013-02-08 23:52:00,29.0,15.0,-100.00,NNE,20,4.0,11.0,55,0.00,,,-99.99,,2013-02-09 04:52:00,